Location: Thompson
(55.7500°N, 97.8670°W)
Time: 16:25:05
(UTC-05:00)

Amateur Radio Satellites - All Passes

Search period start: 24 April 2014 15:55
Search period end: 25 April 2014 15:55
Location: Thompson, 55.7500°N, 97.8670°W

Satellite Date Start Highest point End Downlink Frequencies (MHz)
Time Altitude Azimuth
JAS-1B 24 Apr 15:59:17 16:06:29 79° 70° (ENE) 16:12:37 435.800 - 435.900 CW/SSB
Saudisat 1A 24 Apr 15:59:43 16:03:39 29° 13° (NNE) 16:07:33 436.775 MHz
Gurwin Techsat 1B 24 Apr 15:59:52 16:05:02 52° 260° (W) 16:10:16 435.225 FM
OPAL 24 Apr 16:23:05 16:28:11 50° 103° (ESE) 16:33:16 ?
SO-50 24 Apr 16:26:05 16:30:36 85° 138° (SE) 16:35:11 436.795 FM
AO-7 24 Apr 16:34:54 16:43:13 89° 67° (ENE) 16:51:34 29.400 - 29.500 MHz
Uribyol 2 24 Apr 16:36:58 16:38:48 12° 279° (W) 16:40:37 436.500 FM
AO-Echo 24 Apr 16:38:32 16:41:06 14° 276° (W) 16:43:39 ?
UOSAT-12 24 Apr 16:39:35 16:42:24 16° 113° (ESE) 16:45:15 437.025 FM, 437.400 FM
TMSAT-1 24 Apr 16:45:09 16:49:54 33° 266° (W) 16:54:41 436.925 FM
Uosat F 24 Apr 16:58:28 17:03:22 52° 259° (W) 17:08:18 435.120 FM
HO-68 24 Apr 17:08:19 17:09:43 11° 9° (N) 17:11:07 435.675 MHz FM
ISS 24 Apr 17:10:07 17:13:17 40° 176° (S) 17:16:27 145.800 FM
RS-15 24 Apr 17:39:29 17:47:49 26° 257° (WSW) 17:56:18 29.354 - 29.394 USB, Beacon 29.352 USB
Saudisat 1A 24 Apr 17:39:31 17:43:58 64° 36° (NE) 17:48:21 436.775 MHz
Hamsat 24 Apr 17:41:29 17:45:11 30° 62° (ENE) 17:48:56 145.90 MHz
Gurwin Techsat 1B 24 Apr 17:45:40 17:46:19 10° 281° (W) 17:46:57 435.225 FM
JAS-1B 24 Apr 17:51:54 17:57:45 26° 269° (W) 18:02:58 435.800 - 435.900 CW/SSB
OPAL 24 Apr 18:02:13 18:06:59 37° 303° (WNW) 18:11:45 ?
SO-50 24 Apr 18:07:27 18:11:38 35° 340° (NNW) 18:15:52 436.795 FM
UOSAT-12 24 Apr 18:17:13 18:21:49 72° 134° (SE) 18:26:31 437.025 FM, 437.400 FM
JAS-2 24 Apr 18:26:26 18:31:16 36° 60° (ENE) 18:35:58 435.800 - 435.900 CW/SSB, 435.910 FM
AO-7 24 Apr 18:30:08 18:37:05 29° 270° (W) 18:44:05 29.400 - 29.500 MHz
SO-67 24 Apr 18:30:32 18:32:55 17° 59° (ENE) 18:35:18 435.3500 MHz FM
ISS 24 Apr 18:46:35 18:49:37 32° 196° (SSW) 18:52:39 145.800 FM
HO-68 24 Apr 18:50:02 18:54:51 20° 35° (NE) 18:59:41 435.675 MHz FM
STRAND 1 24 Apr 19:10:59 19:14:38 19° 88° (E) 19:18:16 ?
Hamsat 24 Apr 19:16:59 19:21:03 45° 262° (W) 19:25:12 145.90 MHz
Saudisat 1A 24 Apr 19:19:26 19:23:21 31° 237° (WSW) 19:27:14 436.775 MHz
OPAL 24 Apr 19:42:52 19:44:36 12° 325° (NW) 19:46:21 ?
SO-50 24 Apr 19:49:21 19:53:17 27° 4° (N) 19:57:16 436.795 FM
UOSAT-12 24 Apr 19:57:56 20:02:20 40° 337° (NNW) 20:06:48 437.025 FM, 437.400 FM
SO-67 24 Apr 20:02:16 20:05:44 60° 259° (WSW) 20:09:14 435.3500 MHz FM
JAS-2 24 Apr 20:11:11 20:16:24 47° 261° (W) 20:21:25 435.800 - 435.900 CW/SSB, 435.910 FM
ISS 24 Apr 20:24:03 20:25:38 13° 215° (SW) 20:27:13 145.800 FM
HO-68 24 Apr 20:34:19 20:41:11 53° 59° (ENE) 20:48:06 435.675 MHz FM
STRAND 1 24 Apr 20:49:23 20:54:31 85° 288° (WNW) 20:59:38 ?
Oscar 11 24 Apr 21:11:33 21:15:17 29° 61° (ENE) 21:19:03 145.825 FM, Beacon 2401.500 USB
FUNcube-1 24 Apr 21:20:22 21:22:48 15° 53° (NE) 21:25:14 145.950 - 145.970 MHz USB
SO-50 24 Apr 21:30:22 21:34:48 45° 28° (NNE) 21:39:17 436.795 FM
MaSat-1 24 Apr 21:35:56 21:38:19 33° 120° (ESE) 21:40:35 437.345 MHz
UOSAT-12 24 Apr 21:39:28 21:43:32 28° 1° (N) 21:47:38 437.025 FM, 437.400 FM
HO-68 24 Apr 22:22:12 22:29:03 48° 261° (W) 22:35:58 435.675 MHz FM
STRAND 1 24 Apr 22:29:25 22:33:06 21° 309° (NW) 22:36:47 ?
Oscar 11 24 Apr 22:47:10 22:51:21 47° 261° (W) 22:55:34 145.825 FM, Beacon 2401.500 USB
FUNcube-1 24 Apr 22:54:27 22:58:37 82° 73° (ENE) 23:02:49 145.950 - 145.970 MHz USB
SO-50 24 Apr 23:11:01 23:15:32 55° 230° (SW) 23:20:07 436.795 FM
MaSat-1 24 Apr 23:14:51 23:16:44 19° 321° (NW) 23:18:38 437.345 MHz
UOSAT-12 24 Apr 23:20:14 23:24:43 41° 24° (NNE) 23:29:12 437.025 FM, 437.400 FM
PCSat 24 Apr 23:22:24 23:25:37 16° 106° (ESE) 23:28:52 145.825 MHz
HO-68 25 Apr 00:16:37 00:18:43 11° 284° (WNW) 00:20:49 435.675 MHz FM
Sapphire 25 Apr 00:19:07 00:24:00 36° 117° (ESE) 00:28:56 437.095 MHz 1200 baud AX-25 AFSK
OPAL 25 Apr 00:32:14 00:34:21 13° 37° (NE) 00:36:29 ?
FUNcube-1 25 Apr 00:33:12 00:35:40 15° 273° (W) 00:38:08 145.950 - 145.970 MHz USB
SO-50 25 Apr 00:53:30 00:55:13 12° 250° (WSW) 00:56:56 436.795 FM
KITSAT 1 25 Apr 00:57:10 00:59:58 12° 95° (E) 01:02:47 435.175 FM
UOSAT-12 25 Apr 01:00:29 01:05:12 69° 227° (SW) 01:09:53 437.025 FM, 437.400 FM
PCSat 25 Apr 01:02:46 01:08:09 69° 127° (SE) 01:13:34 145.825 MHz
Sapphire 25 Apr 02:01:51 02:07:14 63° 319° (NW) 02:12:40 437.095 MHz 1200 baud AX-25 AFSK
Oscar 19 25 Apr 02:03:03 02:06:41 19° 87° (E) 02:10:17 437.125 CW, 437.150 USB
AO-27 25 Apr 02:04:30 02:05:50 11° 80° (E) 02:07:11 436.795 MHz FM
OPAL 25 Apr 02:07:16 02:12:03 41° 59° (ENE) 02:16:54 ?
Oscar 16 25 Apr 02:12:09 02:16:15 23° 89° (E) 02:20:19 437.025 USB, Beacon 2401.1428
ITAMSAT 1 25 Apr 02:12:51 02:15:06 13° 82° (E) 02:17:21 435.822 SSB
UOSAT-12 25 Apr 02:41:48 02:44:36 16° 247° (WSW) 02:47:24 437.025 FM, 437.400 FM
KITSAT 1 25 Apr 02:45:44 02:53:21 47° 118° (ESE) 03:00:59 435.175 FM
PCSat 25 Apr 02:46:49 02:51:57 41° 330° (NNW) 02:57:05 145.825 MHz
AO-Echo 25 Apr 02:56:34 03:00:14 22° 89° (E) 03:03:50 ?
Uribyol 2 25 Apr 02:58:15 03:02:45 29° 93° (E) 03:07:13 436.500 FM
TMSAT-1 25 Apr 03:14:36 03:16:30 12° 80° (E) 03:18:23 436.925 FM
JAS-1B 25 Apr 03:38:14 03:39:06 10° 79° (E) 03:39:58 435.800 - 435.900 CW/SSB
AO-27 25 Apr 03:41:26 03:46:33 56° 101° (ESE) 03:51:39 436.795 MHz FM
Oscar 19 25 Apr 03:41:31 03:46:47 90° 287° (WNW) 03:52:00 437.125 CW, 437.150 USB
OPAL 25 Apr 03:46:07 03:50:58 43° 259° (W) 03:55:54 ?
Sapphire 25 Apr 03:46:55 03:51:38 29° 343° (NNW) 03:56:21 437.095 MHz 1200 baud AX-25 AFSK
ITAMSAT 1 25 Apr 03:50:30 03:55:40 64° 103° (ESE) 04:00:49 435.822 SSB
Oscar 16 25 Apr 03:50:57 03:56:11 75° 290° (WNW) 04:01:22 437.025 USB, Beacon 2401.1428
Gurwin Techsat 1B 25 Apr 04:08:12 04:13:09 37° 96° (E) 04:18:04 435.225 FM
MaSat-1 25 Apr 04:13:42 04:15:35 17° 37° (NE) 04:17:37 437.345 MHz
AO-7 25 Apr 04:28:48 04:34:23 19° 83° (E) 04:39:56 29.400 - 29.500 MHz
PCSat 25 Apr 04:32:13 04:36:42 25° 355° (N) 04:41:12 145.825 MHz
AO-Echo 25 Apr 04:34:46 04:39:33 69° 290° (WNW) 04:44:13 ?
Uribyol 2 25 Apr 04:37:29 04:42:35 59° 293° (WNW) 04:47:41 436.500 FM
KITSAT 1 25 Apr 04:40:25 04:48:32 71° 322° (NW) 04:56:42 435.175 FM
TMSAT-1 25 Apr 04:52:20 04:57:36 59° 101° (ESE) 05:02:50 436.925 FM
STRAND 1 25 Apr 04:57:55 05:00:44 15° 45° (NE) 05:03:34 ?
Uosat F 25 Apr 04:58:36 05:02:56 29° 93° (E) 05:07:15 435.120 FM
AO-27 25 Apr 05:21:19 05:25:53 32° 302° (WNW) 05:30:27 436.795 MHz FM
Oscar 19 25 Apr 05:21:37 05:25:33 22° 308° (NW) 05:29:27 437.125 CW, 437.150 USB
JAS-1B 25 Apr 05:25:42 05:31:18 56° 102° (ESE) 05:37:05 435.800 - 435.900 CW/SSB
ITAMSAT 1 25 Apr 05:30:29 05:34:53 29° 304° (NW) 05:39:17 435.822 SSB
Oscar 16 25 Apr 05:31:15 05:34:48 19° 311° (NW) 05:38:21 437.025 USB, Beacon 2401.1428
Sapphire 25 Apr 05:32:04 05:36:37 26° 9° (N) 05:41:09 437.095 MHz 1200 baud AX-25 AFSK
Gurwin Techsat 1B 25 Apr 05:48:12 05:53:17 47° 296° (WNW) 05:58:21 435.225 FM
MaSat-1 25 Apr 05:51:21 05:54:10 66° 235° (SW) 05:57:27 437.345 MHz
RS-15 25 Apr 06:00:13 06:09:29 32° 107° (ESE) 06:18:34 29.354 - 29.394 USB, Beacon 29.352 USB
AO-Echo 25 Apr 06:14:43 06:17:33 16° 312° (NW) 06:20:22 ?
PCSat 25 Apr 06:16:48 06:21:39 31° 21° (NNE) 06:26:29 145.825 MHz
Uribyol 2 25 Apr 06:18:10 06:21:10 16° 315° (NW) 06:24:09 436.500 FM
AO-7 25 Apr 06:20:35 06:28:54 66° 106° (ESE) 06:37:11 29.400 - 29.500 MHz
TMSAT-1 25 Apr 06:32:40 06:37:19 32° 302° (WNW) 06:41:56 436.925 FM
STRAND 1 25 Apr 06:34:01 06:39:01 58° 66° (ENE) 06:44:02 ?
Uosat F 25 Apr 06:37:09 06:42:04 57° 294° (WNW) 06:46:57 435.120 FM
KITSAT 1 25 Apr 06:37:34 06:45:14 43° 350° (N) 06:52:54 435.175 FM
Hamsat 25 Apr 06:55:32 06:58:56 22° 90° (E) 07:02:20 145.90 MHz
JAS-2 25 Apr 07:11:34 07:14:48 16° 85° (E) 07:18:12 435.800 - 435.900 CW/SSB, 435.910 FM
Sapphire 25 Apr 07:16:01 07:21:16 47° 34° (NE) 07:26:30 437.095 MHz 1200 baud AX-25 AFSK
JAS-1B 25 Apr 07:16:51 07:21:53 33° 304° (NW) 07:27:00 435.800 - 435.900 CW/SSB
Gurwin Techsat 1B 25 Apr 07:29:41 07:32:08 13° 318° (NW) 07:34:35 435.225 FM
PCSat 25 Apr 08:00:24 08:05:52 76° 45° (NE) 08:11:18 145.825 MHz
RS-15 25 Apr 08:09:14 08:20:25 82° 133° (SE) 08:31:22 29.354 - 29.394 USB, Beacon 29.352 USB
AO-7 25 Apr 08:13:44 08:21:29 46° 309° (NW) 08:29:15 29.400 - 29.500 MHz
STRAND 1 25 Apr 08:14:08 08:18:33 29° 267° (W) 08:22:59 ?
Uosat F 25 Apr 08:17:15 08:19:56 15° 315° (NW) 08:22:38 435.120 FM
Hamsat 25 Apr 08:31:00 08:35:19 62° 290° (WNW) 08:39:38 145.90 MHz
KITSAT 1 25 Apr 08:34:39 08:42:27 46° 18° (NNE) 08:50:13 435.175 FM
SO-67 25 Apr 08:52:27 08:55:57 58° 101° (E) 08:59:24 435.3500 MHz FM
JAS-2 25 Apr 08:55:25 09:00:50 75° 105° (ESE) 09:06:48 435.800 - 435.900 CW/SSB, 435.910 FM
Sapphire 25 Apr 08:59:35 09:04:53 55° 237° (WSW) 09:10:09 437.095 MHz 1200 baud AX-25 AFSK
JAS-1B 25 Apr 09:10:29 09:10:54 10° 330° (NNW) 09:11:20 435.800 - 435.900 CW/SSB
Saudisat 1A 25 Apr 09:35:38 09:36:56 11° 110° (ESE) 09:38:14 436.775 MHz
HO-68 25 Apr 09:41:21 09:47:11 26° 89° (E) 09:53:00 435.675 MHz FM
PCSat 25 Apr 09:44:18 09:48:53 28° 246° (WSW) 09:53:27 145.825 MHz
AO-7 25 Apr 10:06:48 10:12:27 21° 335° (NNW) 10:18:06 29.400 - 29.500 MHz
Hamsat 25 Apr 10:08:31 10:10:31 13° 310° (NW) 10:12:32 145.90 MHz
RS-15 25 Apr 10:22:45 10:33:39 59° 343° (NNW) 10:44:27 29.354 - 29.394 USB, Beacon 29.352 USB
SO-67 25 Apr 10:26:21 10:28:46 18° 301° (WNW) 10:31:11 435.3500 MHz FM
Oscar 11 25 Apr 10:27:41 10:30:58 20° 90° (E) 10:34:14 145.825 FM, Beacon 2401.500 USB
KITSAT 1 25 Apr 10:30:37 10:38:48 87° 45° (NE) 10:46:55 435.175 FM
FUNcube-1 25 Apr 10:39:15 10:39:16 10° 82° (E) 10:39:17 145.950 - 145.970 MHz USB
JAS-2 25 Apr 10:41:13 10:45:37 27° 305° (NW) 10:50:20 435.800 - 435.900 CW/SSB, 435.910 FM
Sapphire 25 Apr 10:45:06 10:47:11 12° 257° (WSW) 10:49:16 437.095 MHz 1200 baud AX-25 AFSK
Saudisat 1A 25 Apr 11:11:16 11:15:38 54° 130° (SE) 11:20:00 436.775 MHz
HO-68 25 Apr 11:28:36 11:35:51 89° 291° (WNW) 11:43:04 435.675 MHz FM
Oscar 19 25 Apr 11:50:58 11:53:41 15° 44° (NE) 11:56:24 437.125 CW, 437.150 USB
AO-27 25 Apr 11:54:05 11:55:02 11° 38° (NE) 11:55:58 436.795 MHz FM
AO-7 25 Apr 11:58:04 12:02:22 15° 2° (N) 12:06:40 29.400 - 29.500 MHz
Oscar 16 25 Apr 11:59:45 12:02:58 17° 47° (NE) 12:06:12 437.025 USB, Beacon 2401.1428
ITAMSAT 1 25 Apr 12:02:12 12:03:52 12° 40° (NE) 12:05:32 435.822 SSB
Oscar 11 25 Apr 12:03:15 12:07:37 66° 290° (WNW) 12:11:57 145.825 FM, Beacon 2401.500 USB
FUNcube-1 25 Apr 12:12:19 12:16:35 63° 102° (ESE) 12:20:55 145.950 - 145.970 MHz USB
KITSAT 1 25 Apr 12:26:28 12:33:31 34° 249° (WSW) 12:40:30 435.175 FM
RS-15 25 Apr 12:37:12 12:48:01 58° 16° (NNE) 12:58:51 29.354 - 29.394 USB, Beacon 29.352 USB
AO-Echo 25 Apr 12:40:35 12:43:26 15° 48° (NE) 12:46:15 ?
Uribyol 2 25 Apr 12:46:09 12:49:55 21° 51° (NE) 12:53:42 436.500 FM
Saudisat 1A 25 Apr 12:51:06 12:55:24 44° 332° (NNW) 12:59:42 436.775 MHz
TMSAT-1 25 Apr 13:06:30 13:07:53 11° 38° (NE) 13:09:17 436.925 FM
HO-68 25 Apr 13:16:50 13:22:52 30° 314° (NW) 13:28:54 435.675 MHz FM
Oscar 19 25 Apr 13:27:00 13:32:01 54° 66° (ENE) 13:37:06 437.125 CW, 437.150 USB
AO-27 25 Apr 13:28:32 13:33:14 36° 60° (ENE) 13:37:57 436.795 MHz FM
Oscar 16 25 Apr 13:36:22 13:41:29 66° 68° (ENE) 13:46:39 437.025 USB, Beacon 2401.1428
ITAMSAT 1 25 Apr 13:37:20 13:42:09 41° 61° (ENE) 13:46:59 435.822 SSB
Oscar 11 25 Apr 13:40:50 13:43:04 14° 310° (NW) 13:45:18 145.825 FM, Beacon 2401.500 USB
AO-7 25 Apr 13:46:23 13:52:22 23° 29° (NNE) 13:58:22 29.400 - 29.500 MHz
FUNcube-1 25 Apr 13:49:21 13:52:43 23° 302° (WNW) 13:56:07 145.950 - 145.970 MHz USB
Gurwin Techsat 1B 25 Apr 13:58:26 14:02:46 26° 54° (NE) 14:07:08 435.225 FM
AO-Echo 25 Apr 14:16:22 14:21:24 62° 68° (ENE) 14:26:18 ?
Uribyol 2 25 Apr 14:23:37 14:28:47 86° 72° (ENE) 14:34:00 436.500 FM
JAS-1B 25 Apr 14:29:42 14:35:14 28° 52° (NE) 14:40:13 435.800 - 435.900 CW/SSB
Saudisat 1A 25 Apr 14:32:07 14:35:56 27° 356° (N) 14:39:44 436.775 MHz
TMSAT-1 25 Apr 14:41:39 14:46:30 38° 60° (ENE) 14:51:22 436.925 FM
Uosat F 25 Apr 14:42:30 14:46:03 20° 50° (NE) 14:49:37 435.120 FM
ISS 25 Apr 14:46:03 14:48:24 18° 151° (SSE) 14:50:45 145.800 FM
RS-15 25 Apr 14:50:20 15:01:19 85° 226° (SW) 15:12:27 29.354 - 29.394 USB, Beacon 29.352 USB
HO-68 25 Apr 15:05:22 15:08:30 13° 338° (NNW) 15:11:38 435.675 MHz FM
Oscar 19 25 Apr 15:07:04 15:11:39 32° 266° (W) 15:16:18 437.125 CW, 437.150 USB
AO-27 25 Apr 15:07:40 15:12:41 49° 260° (W) 15:17:44 436.795 MHz FM
SO-50 25 Apr 15:13:06 15:17:13 37° 125° (SE) 15:21:24 436.795 FM
ITAMSAT 1 25 Apr 15:16:46 15:21:41 43° 262° (W) 15:26:38 435.822 SSB
Oscar 16 25 Apr 15:17:01 15:21:18 26° 269° (W) 15:25:37 437.025 USB, Beacon 2401.1428
AO-7 25 Apr 15:35:38 15:43:33 53° 54° (NE) 15:51:30 29.400 - 29.500 MHz
Gurwin Techsat 1B 25 Apr 15:37:01 15:42:20 75° 255° (WSW) 15:47:41 435.225 FM
